Location: Clanezzo
(45.7500°N, 9.6000°E)
Time: 21:13:33
(UTC+00:00)

CAS-4B - Visible Passes

Search period start: 27 June 2022 00:00
Search period end: 07 July 2022 00:00
Orbit: 523 x 537 km, 43.0° (Epoch: 27 June)

Date Brightness Start Highest point End Pass type
(mag) Time Alt. Az. Time Alt. Az. Time Alt. Az.
27 Jun ? 01:59:48 10° SSE 02:00:39 11° SE 02:01:31 10° SE visible
28 Jun ? 01:46:54 12° SSE 01:48:05 13° SE 01:49:56 10° ESE visible
29 Jun ? 01:34:48 15° SSE 01:35:31 15° SSE 01:37:55 10° ESE visible
30 Jun ? 01:22:40 18° SSE 01:22:58 18° SSE 01:25:45 10° ESE visible
01 Jul ? 01:10:30 21° SSE 01:10:30 21° SSE 01:13:28 10° ESE visible
01 Jul ? 02:46:00 10° WSW 02:49:54 50° SSE 02:53:50 10° E visible
02 Jul ? 00:58:18 24° SE 00:58:18 24° SE 01:01:08 10° E visible
02 Jul ? 02:33:29 10° WSW 02:37:25 53° S 02:41:22 10° E visible
03 Jul ? 00:46:04 26° SE 00:46:04 26° SE 00:48:46 10° E visible
03 Jul ? 02:21:15 12° WSW 02:24:55 56° S 02:28:53 10° E visible
04 Jul ? 00:33:50 27° SE 00:33:50 27° SE 00:36:22 10° E visible
04 Jul ? 02:09:01 14° WSW 02:12:25 58° S 02:16:24 10° E visible
05 Jul ? 00:21:37 27° ESE 00:21:37 27° ESE 00:23:55 10° E visible
05 Jul ? 01:56:48 16° WSW 01:59:54 59° S 02:03:54 10° E visible
06 Jul ? 00:09:25 25° ESE 00:09:25 25° ESE 00:11:27 10° E visible
06 Jul ? 01:44:36 18° WSW 01:47:24 59° S 01:51:23 10° E visible
06 Jul ? 23:57:15 23° ESE 23:57:15 23° ESE 23:58:58 10° E visible
